Time,TemperatureF,DewpointF,PressureIn,WindDirection,WindDirectionDegrees,WindSpeedMPH,WindSpeedGustMPH,Humidity,HourlyPrecipIn,Conditions,Clouds,dailyrainin,SoftwareType,DateUTC
2013-04-15 00:00:00,53.8,38.0,29.72,NNE,20,4.0,4.0,55,0.00,,---,0.00,VWS V13.01,2013-04-15 07:00:00,
2013-04-15 00:05:00,53.8,38.0,29.72,NNE,18,2.2,2.7,55,0.00,,---,0.00,VWS V13.01,2013-04-15 07:05:00,
2013-04-15 00:43:00,52.9,38.5,29.72,NNE,19,4.9,4.9,58,0.00,,---,0.00,VWS V13.01,2013-04-15 07:43:00,
2013-04-15 00:47:00,52.9,39.0,29.72,North,357,0.0,3.1,59,0.00,,---,0.00,VWS V13.01,2013-04-15 07:47:00,
2013-04-15 00:49:00,52.9,39.0,29.72,North,357,0.0,0.0,59,0.00,,---,0.00,VWS V13.01,2013-04-15 07:49:00,
2013-04-15 00:51:00,52.9,39.0,29.72,North,8,3.6,3.6,59,0.00,,---,0.00,VWS V13.01,2013-04-15 07:51:00,
2013-04-15 00:55:00,52.9,39.0,29.75,North,2,3.1,3.1,59,0.00,,---,0.00,VWS V13.01,2013-04-15 07:55:00,
2013-04-15 00:57:00,52.9,39.0,29.75,North,2,3.1,3.1,59,0.00,,---,0.00,VWS V13.01,2013-04-15 07:57:00,
2013-04-15 01:03:00,52.7,39.2,29.75,ENE,65,0.0,0.0,60,0.00,,---,0.00,VWS V13.01,2013-04-15 08:03:00,
2013-04-15 01:09:00,52.7,39.2,29.75,NNE,13,2.7,2.7,60,0.00,,---,0.00,VWS V13.01,2013-04-15 08:09:00,
2013-04-15 01:15:00,52.5,39.5,29.75,East,80,3.1,3.1,61,0.00,,---,0.00,VWS V13.01,2013-04-15 08:15:00,
2013-04-15 01:20:00,52.5,39.5,29.75,NNE,28,2.2,2.2,61,0.00,,---,0.00,VWS V13.01,2013-04-15 08:20:00,
2013-04-15 01:26:00,52.3,39.3,29.75,NNW,329,0.0,2.7,61,0.00,,---,0.00,VWS V13.01,2013-04-15 08:26:00,
2013-04-15 01:32:00,52.2,39.1,29.75,NNE,18,0.0,0.0,61,0.00,,---,0.00,VWS V13.01,2013-04-15 08:32:00,
2013-04-15 01:38:00,52.0,39.0,29.75,North,0,3.1,3.1,61,0.00,,---,0.00,VWS V13.01,2013-04-15 08:38:00,
2013-04-15 01:40:00,52.0,39.0,29.75,NE,46,0.0,3.1,61,0.00,,---,0.00,VWS V13.01,2013-04-15 08:40:00,
2013-04-15 01:46:00,52.0,39.0,29.75,North,357,0.0,0.0,61,0.00,,---,0.00,VWS V13.01,2013-04-15 08:46:00,
2013-04-15 01:48:00,52.0,39.0,29.75,North,357,0.0,0.0,61,0.00,,---,0.00,VWS V13.01,2013-04-15 08:48:00,
2013-04-15 01:54:00,52.0,39.0,29.75,East,83,0.0,0.0,61,0.00,,---,0.00,VWS V13.01,2013-04-15 08:54:00,
2013-04-15 02:00:00,51.6,39.0,29.75,East,101,0.0,0.0,62,0.00,,---,0.00,VWS V13.01,2013-04-15 09:00:00,
2013-04-15 02:05:00,51.4,38.9,29.75,North,353,0.0,0.0,62,0.00,,---,0.00,VWS V13.01,2013-04-15 09:05:00,
2013-04-15 02:10:00,51.3,38.7,29.75,North,357,0.0,2.7,62,0.00,,---,0.00,VWS V13.01,2013-04-15 09:10:00,
2013-04-15 02:17:00,51.3,38.7,29.75,North,357,0.0,0.0,62,0.00,,---,0.00,VWS V13.01,2013-04-15 09:17:00,
2013-04-15 02:23:00,51.3,39.1,29.75,ENE,59,0.0,0.0,63,0.00,,---,0.00,VWS V13.01,2013-04-15 09:23:00,
2013-04-15 02:29:00,51.3,39.1,29.75,ENE,71,0.0,0.0,63,0.00,,---,0.00,VWS V13.01,2013-04-15 09:29:00,
2013-04-15 02:35:00,51.3,39.1,29.75,NNE,33,0.0,0.0,63,0.00,,---,0.00,VWS V13.01,2013-04-15 09:35:00,
2013-04-15 02:41:00,51.3,39.1,29.75,North,357,0.0,0.0,63,0.00,,---,0.00,VWS V13.01,2013-04-15 09:41:00,
2013-04-15 02:47:00,51.4,39.7,29.75,ENE,66,0.0,0.0,64,0.00,,---,0.00,VWS V13.01,2013-04-15 09:47:00,
2013-04-15 02:53:00,51.4,39.7,29.75,North,2,0.0,0.0,64,0.00,,---,0.00,VWS V13.01,2013-04-15 09:53:00,
2013-04-15 02:59:00,51.4,39.7,29.75,NE,46,3.1,3.1,64,0.00,,---,0.00,VWS V13.01,2013-04-15 09:59:00,
2013-04-15 03:04:00,51.4,39.7,29.75,NNW,346,0.0,0.0,64,0.00,,---,0.00,VWS V13.01,2013-04-15 10:04:00,
2013-04-15 03:10:00,51.3,39.9,29.75,North,11,0.0,0.0,65,0.00,,---,0.00,VWS V13.01,2013-04-15 10:10:00,
2013-04-15 03:15:00,51.3,39.9,29.75,NNE,25,0.0,0.0,65,0.00,,---,0.00,VWS V13.01,2013-04-15 10:15:00,
2013-04-15 03:21:00,51.3,39.9,29.75,NNE,12,0.0,0.0,65,0.00,,---,0.00,VWS V13.01,2013-04-15 10:21:00,
2013-04-15 03:27:00,51.1,39.7,29.75,North,6,0.0,0.0,65,0.00,,---,0.00,VWS V13.01,2013-04-15 10:27:00,
2013-04-15 03:33:00,50.9,39.6,29.75,North,7,0.0,0.0,65,0.00,,---,0.00,VWS V13.01,2013-04-15 10:33:00,
2013-04-15 03:39:00,50.7,39.4,29.75,North,8,0.0,0.0,65,0.00,,---,0.00,VWS V13.01,2013-04-15 10:39:00,
2013-04-15 03:45:00,50.7,39.4,29.75,NE,34,0.0,0.0,65,0.00,,---,0.00,VWS V13.01,2013-04-15 10:45:00,
2013-04-15 03:50:00,50.4,39.1,29.75,NE,34,0.0,0.0,65,0.00,,---,0.00,VWS V13.01,2013-04-15 10:50:00,
2013-04-15 03:55:00,50.2,39.3,29.72,North,357,0.0,0.0,66,0.00,,---,0.00,VWS V13.01,2013-04-15 10:55:00,
2013-04-15 04:00:00,50.2,39.3,29.72,NE,53,0.0,2.7,66,0.00,,---,0.00,VWS V13.01,2013-04-15 11:00:00,
2013-04-15 04:06:00,50.0,39.1,29.72,NNE,22,0.0,0.0,66,0.00,,---,0.00,VWS V13.01,2013-04-15 11:06:00,
2013-04-15 04:13:00,50.0,39.1,29.75,North,357,0.0,0.0,66,0.00,,---,0.00,VWS V13.01,2013-04-15 11:13:00,
2013-04-15 04:19:00,49.6,39.2,29.75,East,85,0.0,0.0,67,0.00,,---,0.00,VWS V13.01,2013-04-15 11:19:00,
2013-04-15 04:25:00,49.6,39.2,29.75,North,2,0.0,0.0,67,0.00,,---,0.00,VWS V13.01,2013-04-15 11:25:00,
2013-04-15 04:30:00,49.6,39.2,29.75,NNE,28,0.0,0.0,67,0.00,,---,0.00,VWS V13.01,2013-04-15 11:30:00,
2013-04-15 04:35:00,49.5,39.3,29.75,NNE,23,0.0,0.0,68,0.00,,---,0.00,VWS V13.01,2013-04-15 11:35:00,
2013-04-15 04:40:00,49.3,39.5,29.75,NNE,17,2.2,2.2,69,0.00,,---,0.00,VWS V13.01,2013-04-15 11:40:00,
2013-04-15 04:45:00,49.3,39.5,29.75,NNE,17,0.0,0.0,69,0.00,,---,0.00,VWS V13.01,2013-04-15 11:45:00,
2013-04-15 04:51:00,49.3,39.5,29.75,NNE,17,0.0,0.0,69,0.00,,---,0.00,VWS V13.01,2013-04-15 11:51:00,
2013-04-15 04:57:00,49.1,39.8,29.75,North,2,0.0,0.0,70,0.00,,---,0.00,VWS V13.01,2013-04-15 11:57:00,
2013-04-15 05:03:00,49.1,39.8,29.75,ENE,74,0.0,0.0,70,0.00,,---,0.00,VWS V13.01,2013-04-15 12:03:00,
2013-04-15 05:09:00,48.7,39.4,29.75,North,353,0.0,0.0,70,0.00,,---,0.00,VWS V13.01,2013-04-15 12:09:00,
2013-04-15 05:15:00,48.7,39.8,29.75,North,353,0.0,0.0,71,0.00,,---,0.00,VWS V13.01,2013-04-15 12:15:00,
2013-04-15 05:22:00,48.7,39.8,29.75,NNE,19,0.0,0.0,71,0.00,,---,0.00,VWS V13.01,2013-04-15 12:22:00,
2013-04-15 05:28:00,48.4,39.8,29.75,North,353,0.0,0.0,72,0.00,,---,0.00,VWS V13.01,2013-04-15 12:28:00,
2013-04-15 05:34:00,48.2,39.6,29.75,North,353,0.0,0.0,72,0.00,,---,0.00,VWS V13.01,2013-04-15 12:34:00,
2013-04-15 05:40:00,48.2,39.6,29.75,North,353,0.0,0.0,72,0.00,,---,0.00,VWS V13.01,2013-04-15 12:40:00,
2013-04-15 05:45:00,48.0,39.4,29.75,North,353,0.0,0.0,72,0.00,,---,0.00,VWS V13.01,2013-04-15 12:45:00,
2013-04-15 05:50:00,47.8,39.3,29.75,North,353,0.0,0.0,72,0.00,,---,0.00,VWS V13.01,2013-04-15 12:50:00,
2013-04-15 05:55:00,47.8,39.3,29.75,North,353,0.0,0.0,72,0.00,,---,0.00,VWS V13.01,2013-04-15 12:55:00,
2013-04-15 06:01:00,47.7,39.4,29.75,North,353,0.0,0.0,73,0.00,,---,0.00,VWS V13.01,2013-04-15 13:01:00,
2013-04-15 06:07:00,47.7,39.4,29.75,North,353,0.0,0.0,73,0.00,,---,0.00,VWS V13.01,2013-04-15 13:07:00,
2013-04-15 06:13:00,47.5,39.3,29.75,NE,44,0.0,0.0,73,0.00,,---,0.00,VWS V13.01,2013-04-15 13:13:00,
2013-04-15 06:19:00,47.5,39.3,29.75,NNE,12,0.0,0.0,73,0.00,,---,0.00,VWS V13.01,2013-04-15 13:19:00,
2013-04-15 06:25:00,47.3,39.5,29.75,NNE,12,0.0,0.0,74,0.00,,---,0.00,VWS V13.01,2013-04-15 13:25:00,
2013-04-15 06:31:00,47.3,39.5,29.75,NNE,12,0.0,0.0,74,0.00,,---,0.00,VWS V13.01,2013-04-15 13:31:00,
2013-04-15 06:37:00,47.1,39.3,29.75,NNE,12,0.0,0.0,74,0.00,,---,0.00,VWS V13.01,2013-04-15 13:37:00,
2013-04-15 06:44:00,47.1,39.3,29.75,NNE,12,0.0,0.0,74,0.00,,---,0.00,VWS V13.01,2013-04-15 13:44:00,
2013-04-15 06:50:00,47.1,39.3,29.75,ENE,64,0.0,0.0,74,0.00,,---,0.00,VWS V13.01,2013-04-15 13:50:00,
2013-04-15 06:56:00,47.1,39.6,29.75,ENE,64,0.0,0.0,75,0.00,,---,0.00,VWS V13.01,2013-04-15 13:56:00,
2013-04-15 07:02:00,46.9,39.4,29.75,ENE,64,0.0,0.0,75,0.00,,---,0.00,VWS V13.01,2013-04-15 14:02:00,
2013-04-15 07:08:00,47.1,39.6,29.75,ENE,64,0.0,0.0,75,0.00,,---,0.00,VWS V13.01,2013-04-15 14:08:00,
2013-04-15 07:14:00,47.1,39.6,29.75,ENE,64,0.0,0.0,75,0.00,,---,0.00,VWS V13.01,2013-04-15 14:14:00,
2013-04-15 07:21:00,47.3,40.1,29.75,NNE,31,0.0,0.0,76,0.00,,---,0.00,VWS V13.01,2013-04-15 14:21:00,
2013-04-15 07:27:00,47.5,40.3,29.75,NNE,31,0.0,0.0,76,0.00,,---,0.00,VWS V13.01,2013-04-15 14:27:00,
2013-04-15 07:33:00,47.8,40.7,29.75,NNE,31,0.0,0.0,76,0.00,,---,0.00,VWS V13.01,2013-04-15 14:33:00,
2013-04-15 07:39:00,48.0,40.8,29.75,NNE,18,0.0,0.0,76,0.00,,---,0.00,VWS V13.01,2013-04-15 14:39:00,
2013-04-15 07:45:00,48.0,40.8,29.75,NNE,17,0.0,0.0,76,0.00,,---,0.00,VWS V13.01,2013-04-15 14:45:00,
2013-04-15 07:50:00,48.2,41.0,29.75,NNE,17,0.0,0.0,76,0.00,,---,0.00,VWS V13.01,2013-04-15 14:50:00,
2013-04-15 07:55:00,48.2,41.0,29.78,North,8,0.0,0.0,76,0.00,,---,0.00,VWS V13.01,2013-04-15 14:55:00,
2013-04-15 08:00:00,48.7,41.5,29.78,North,9,0.0,0.0,76,0.00,,---,0.00,VWS V13.01,2013-04-15 15:00:00,
2013-04-15 08:05:00,48.7,41.5,29.78,North,9,0.0,0.0,76,0.00,,---,0.00,VWS V13.01,2013-04-15 15:05:00,
2013-04-15 08:12:00,49.5,42.6,29.78,North,9,0.0,0.0,77,0.00,,---,0.00,VWS V13.01,2013-04-15 15:12:00,
2013-04-15 08:18:00,50.0,42.7,29.78,North,9,0.0,0.0,76,0.00,,---,0.00,VWS V13.01,2013-04-15 15:18:00,
2013-04-15 08:24:00,51.3,44.3,29.78,NNE,32,0.0,0.0,77,0.00,,---,0.00,VWS V13.01,2013-04-15 15:24:00,
2013-04-15 08:30:00,51.3,44.3,29.78,NNE,32,0.0,0.0,77,0.00,,---,0.00,VWS V13.01,2013-04-15 15:30:00,
2013-04-15 08:35:00,52.2,44.5,29.78,NNE,14,0.0,0.0,75,0.00,,---,0.00,VWS V13.01,2013-04-15 15:35:00,
2013-04-15 08:40:00,52.3,44.3,29.78,NNE,29,0.0,0.0,74,0.00,,---,0.00,VWS V13.01,2013-04-15 15:40:00,
2013-04-15 08:45:00,52.3,44.3,29.78,NNW,342,3.1,3.6,74,0.00,,---,0.00,VWS V13.01,2013-04-15 15:45:00,
2013-04-15 08:50:00,53.1,43.9,29.78,NW,325,3.1,3.1,71,0.00,,---,0.00,VWS V13.01,2013-04-15 15:50:00,
2013-04-15 08:56:00,53.1,43.2,29.78,NW,325,3.1,3.1,69,0.00,,---,0.00,VWS V13.01,2013-04-15 15:56:00,
2013-04-15 09:02:00,53.1,42.0,29.78,North,357,0.0,0.0,66,0.00,,---,0.00,VWS V13.01,2013-04-15 16:02:00,
2013-04-15 09:09:00,53.4,42.0,29.78,NE,34,2.2,2.2,65,0.00,,---,0.00,VWS V13.01,2013-04-15 16:09:00,
2013-04-15 09:15:00,53.6,41.3,29.78,NNE,27,0.0,0.0,63,0.00,,---,0.00,VWS V13.01,2013-04-15 16:15:00,
2013-04-15 09:20:00,54.0,41.2,29.78,ENE,62,0.0,0.0,62,0.00,,---,0.00,VWS V13.01,2013-04-15 16:20:00,
2013-04-15 09:25:00,54.5,41.8,29.78,NNE,19,4.9,4.9,62,0.00,,---,0.00,VWS V13.01,2013-04-15 16:25:00,
2013-04-15 09:31:00,55.4,41.8,29.78,ESE,104,0.0,0.0,60,0.00,,---,0.00,VWS V13.01,2013-04-15 16:31:00,
2013-04-15 09:37:00,55.4,41.3,29.78,ENE,77,0.0,0.0,59,0.00,,---,0.00,VWS V13.01,2013-04-15 16:37:00,
2013-04-15 09:44:00,55.8,41.7,29.78,NNE,18,0.0,0.0,59,0.00,,---,0.00,VWS V13.01,2013-04-15 16:44:00,
2013-04-15 09:50:00,56.3,40.4,29.78,ESE,117,0.0,2.2,55,0.00,,---,0.00,VWS V13.01,2013-04-15 16:50:00,
2013-04-15 09:55:00,56.7,40.7,29.78,ESE,115,0.0,0.0,55,0.00,,---,0.00,VWS V13.01,2013-04-15 16:55:00,
2013-04-15 10:00:00,57.4,40.9,29.78,ENE,73,2.2,2.2,54,0.00,,---,0.00,VWS V13.01,2013-04-15 17:00:00,
2013-04-15 10:07:00,57.7,39.8,29.78,NNE,15,0.0,3.1,51,0.00,,---,0.00,VWS V13.01,2013-04-15 17:07:00,
2013-04-15 10:13:00,57.2,39.2,29.78,SE,126,0.0,2.2,51,0.00,,---,0.00,VWS V13.01,2013-04-15 17:13:00,
2013-04-15 10:19:00,56.8,39.4,29.78,SW,217,0.0,0.0,52,0.00,,---,0.00,VWS V13.01,2013-04-15 17:19:00,
2013-04-15 10:21:00,56.8,39.4,29.78,North,6,0.0,0.0,52,0.00,,---,0.00,VWS V13.01,2013-04-15 17:21:00,
2013-04-15 10:23:00,56.8,39.4,29.78,NNW,346,3.6,3.6,52,0.00,,---,0.00,VWS V13.01,2013-04-15 17:23:00,
2013-04-15 10:25:00,57.0,39.6,29.78,ESE,104,0.0,3.6,52,0.00,,---,0.00,VWS V13.01,2013-04-15 17:25:00,
2013-04-15 10:30:00,56.8,39.4,29.78,ESE,112,0.0,0.0,52,0.00,,---,0.00,VWS V13.01,2013-04-15 17:30:00,
2013-04-15 10:33:00,56.8,39.4,29.78,NNE,14,0.0,2.7,52,0.00,,---,0.00,VWS V13.01,2013-04-15 17:33:00,
2013-04-15 10:40:00,58.1,40.1,29.78,ESE,104,2.2,2.2,51,0.00,,---,0.00,VWS V13.01,2013-04-15 17:40:00,
2013-04-15 10:45:00,58.1,40.1,29.78,NNE,16,3.6,3.6,51,0.00,,---,0.00,VWS V13.01,2013-04-15 17:45:00,
2013-04-15 10:50:00,58.1,40.1,29.78,SSE,156,0.0,0.0,51,0.00,,---,0.00,VWS V13.01,2013-04-15 17:50:00,
2013-04-15 10:56:00,58.3,40.2,29.78,ESE,114,0.0,0.0,51,0.00,,---,0.00,VWS V13.01,2013-04-15 17:56:00,
2013-04-15 11:02:00,58.6,40.1,29.78,SE,135,0.0,3.6,50,0.00,,---,0.00,VWS V13.01,2013-04-15 18:02:00,
2013-04-15 11:08:00,57.9,39.4,29.78,SE,126,2.7,2.7,50,0.00,,---,0.00,VWS V13.01,2013-04-15 18:08:00,
2013-04-15 11:14:00,57.7,39.8,29.78,ENE,72,0.0,0.0,51,0.00,,---,0.00,VWS V13.01,2013-04-15 18:14:00,
2013-04-15 11:20:00,57.7,39.2,29.78,West,276,0.0,4.0,50,0.00,,---,0.00,VWS V13.01,2013-04-15 18:20:00,
2013-04-15 11:25:00,57.9,39.4,29.78,WNW,290,0.0,0.0,50,0.00,,---,0.00,VWS V13.01,2013-04-15 18:25:00,
2013-04-15 11:30:00,57.9,39.4,29.78,SE,130,3.1,3.1,50,0.00,,---,0.00,VWS V13.01,2013-04-15 18:30:00,
2013-04-15 11:32:00,58.1,39.6,29.78,SE,139,0.0,0.0,50,0.00,,---,0.00,VWS V13.01,2013-04-15 18:32:00,
2013-04-15 11:36:00,59.2,40.6,29.78,North,357,2.7,2.7,50,0.00,,---,0.00,VWS V13.01,2013-04-15 18:36:00,
2013-04-15 11:38:00,59.7,41.1,29.78,ESE,108,0.0,2.2,50,0.00,,---,0.00,VWS V13.01,2013-04-15 18:38:00,
2013-04-15 11:44:00,61.0,41.7,29.78,North,0,2.2,3.1,49,0.00,,---,0.00,VWS V13.01,2013-04-15 18:44:00,
2013-04-15 11:50:00,61.7,40.7,29.78,ENE,62,0.0,0.0,46,0.00,,---,0.00,VWS V13.01,2013-04-15 18:50:00,
2013-04-15 11:55:00,61.9,40.9,29.75,ESE,123,0.0,2.2,46,0.00,,---,0.00,VWS V13.01,2013-04-15 18:55:00,
2013-04-15 12:00:00,61.2,39.1,29.75,SE,124,3.1,3.1,44,0.00,,---,0.00,VWS V13.01,2013-04-15 19:00:00,
2013-04-15 12:06:00,60.1,39.8,29.75,WNW,298,0.0,0.0,47,0.00,,---,0.00,VWS V13.01,2013-04-15 19:06:00,
2013-04-15 12:12:00,59.9,38.0,29.75,NW,304,0.0,0.0,44,0.00,,---,0.00,VWS V13.01,2013-04-15 19:12:00,
2013-04-15 12:18:00,59.5,39.3,29.75,North,353,0.0,3.6,47,0.00,,---,0.00,VWS V13.01,2013-04-15 19:18:00,
2013-04-15 12:24:00,59.5,37.6,29.75,NNE,12,0.0,0.0,44,0.00,,---,0.00,VWS V13.01,2013-04-15 19:24:00,
2013-04-15 12:30:00,59.9,38.0,29.75,North,357,0.0,2.7,44,0.00,,---,0.00,VWS V13.01,2013-04-15 19:30:00,
2013-04-15 12:35:00,60.1,38.1,29.75,ESE,108,0.0,0.0,44,0.00,,---,0.00,VWS V13.01,2013-04-15 19:35:00,
2013-04-15 12:40:00,59.0,36.0,29.75,SE,134,3.1,3.1,42,0.00,,---,0.00,VWS V13.01,2013-04-15 19:40:00,
2013-04-15 12:45:00,59.0,36.0,29.75,East,98,0.0,0.0,42,0.00,,---,0.00,VWS V13.01,2013-04-15 19:45:00,
2013-04-15 12:52:00,57.7,36.0,29.75,ESE,117,0.0,0.0,44,0.00,,---,0.00,VWS V13.01,2013-04-15 19:52:00,
2013-04-15 12:59:00,57.7,36.0,29.75,ESE,110,0.0,0.0,44,0.00,,---,0.00,VWS V13.01,2013-04-15 19:59:00,
2013-04-15 13:00:00,57.7,36.0,29.75,ESE,110,0.0,0.0,44,0.00,,---,0.00,VWS V13.01,2013-04-15 20:00:00,
2013-04-15 13:03:00,57.7,36.0,29.75,ESE,110,0.0,0.0,44,0.00,,---,0.00,VWS V13.01,2013-04-15 20:03:00,
2013-04-15 13:05:00,57.7,36.0,29.75,SSE,147,0.0,0.0,44,0.00,,---,0.00,VWS V13.01,2013-04-15 20:05:00,
2013-04-15 13:11:00,57.7,36.0,29.75,South,173,0.0,0.0,44,0.00,,---,0.00,VWS V13.01,2013-04-15 20:11:00,
2013-04-15 13:15:00,57.9,36.2,29.75,SSE,153,0.0,0.0,44,0.00,,---,0.00,VWS V13.01,2013-04-15 20:15:00,
2013-04-15 13:17:00,57.9,36.2,29.75,SSE,153,0.0,0.0,44,0.00,,---,0.00,VWS V13.01,2013-04-15 20:17:00,
2013-04-15 13:23:00,57.7,36.0,29.75,SE,132,0.0,0.0,44,0.00,,---,0.00,VWS V13.01,2013-04-15 20:23:00,
2013-04-15 13:29:00,57.7,36.0,29.75,West,265,0.0,2.7,44,0.00,,---,0.00,VWS V13.01,2013-04-15 20:29:00,
2013-04-15 13:35:00,58.5,36.7,29.75,SE,129,2.7,2.7,44,0.00,,---,0.00,VWS V13.01,2013-04-15 20:35:00,
2013-04-15 13:40:00,58.5,36.7,29.75,SSE,150,0.0,0.0,44,0.00,,---,0.00,VWS V13.01,2013-04-15 20:40:00,
2013-04-15 13:45:00,59.9,38.0,29.75,ESE,115,0.0,0.0,44,0.00,,---,0.00,VWS V13.01,2013-04-15 20:45:00,
2013-04-15 13:50:00,61.5,39.4,29.75,NNE,31,0.0,2.7,44,0.00,,---,0.00,VWS V13.01,2013-04-15 20:50:00,
2013-04-15 13:55:00,61.5,39.4,29.75,SE,137,0.0,2.7,44,0.00,,---,0.00,VWS V13.01,2013-04-15 20:55:00,
2013-04-15 14:01:00,63.1,39.1,29.75,NNE,12,0.0,0.0,41,0.00,,---,0.00,VWS V13.01,2013-04-15 21:01:00,
2013-04-15 14:07:00,64.0,37.9,29.75,ESE,108,0.0,0.0,38,0.00,,---,0.00,VWS V13.01,2013-04-15 21:07:00,
2013-04-15 14:13:00,64.0,37.9,29.75,SE,134,3.1,3.6,38,0.00,,---,0.00,VWS V13.01,2013-04-15 21:13:00,
2013-04-15 14:19:00,64.4,38.3,29.75,SE,135,3.1,3.1,38,0.00,,---,0.00,VWS V13.01,2013-04-15 21:19:00,
2013-04-15 14:25:00,64.2,38.1,29.72,ESE,123,3.1,3.1,38,0.00,,---,0.00,VWS V13.01,2013-04-15 21:25:00,
2013-04-15 14:31:00,64.8,38.6,29.72,SE,129,2.2,3.1,38,0.00,,---,0.00,VWS V13.01,2013-04-15 21:31:00,
2013-04-15 14:37:00,65.1,38.9,29.72,SE,137,4.5,4.5,38,0.00,,---,0.00,VWS V13.01,2013-04-15 21:37:00,
2013-04-15 14:43:00,65.1,38.9,29.72,SE,127,2.7,2.7,38,0.00,,---,0.00,VWS V13.01,2013-04-15 21:43:00,
2013-04-15 14:49:00,65.1,38.9,29.72,SE,134,0.0,3.1,38,0.00,,---,0.00,VWS V13.01,2013-04-15 21:49:00,
2013-04-15 14:55:00,64.2,38.1,29.72,West,260,2.2,3.1,38,0.00,,---,0.00,VWS V13.01,2013-04-15 21:55:00,
2013-04-15 15:00:00,63.1,37.1,29.69,SE,129,0.0,2.7,38,0.00,,---,0.00,VWS V13.01,2013-04-15 22:00:00,
2013-04-15 15:05:00,62.6,36.7,29.69,ESE,113,2.2,2.7,38,0.00,,---,0.00,VWS V13.01,2013-04-15 22:05:00,
2013-04-15 15:11:00,62.6,36.7,29.69,SE,142,3.6,3.6,38,0.00,,---,0.00,VWS V13.01,2013-04-15 22:11:00,
2013-04-15 15:17:00,61.3,36.2,29.69,SE,142,5.4,5.4,39,0.00,,---,0.00,VWS V13.01,2013-04-15 22:17:00,
2013-04-15 15:23:00,61.2,36.0,29.69,SE,135,2.2,4.0,39,0.00,,---,0.00,VWS V13.01,2013-04-15 22:23:00,
2013-04-15 15:29:00,61.2,36.0,29.69,NE,54,2.2,2.2,39,0.00,,---,0.00,VWS V13.01,2013-04-15 22:29:00,
2013-04-15 15:35:00,61.2,36.0,29.69,SE,130,0.0,0.0,39,0.00,,---,0.00,VWS V13.01,2013-04-15 22:35:00,
2013-04-15 15:40:00,56.7,38.2,29.69,SE,131,0.0,0.0,50,0.00,,---,0.00,VWS V13.01,2013-04-15 22:40:00,
2013-04-15 15:45:00,56.1,38.3,29.69,SE,130,4.0,5.4,51,0.00,,---,0.00,VWS V13.01,2013-04-15 22:45:00,
2013-04-15 15:52:00,54.0,40.0,29.69,ESE,105,0.0,2.7,59,0.00,,---,0.00,VWS V13.01,2013-04-15 22:52:00,
2013-04-15 15:58:00,53.1,40.4,29.72,NE,36,3.6,3.6,62,0.00,,---,0.00,VWS V13.01,2013-04-15 22:58:00,
2013-04-15 16:04:00,52.0,39.8,29.72,NE,35,0.0,0.0,63,0.04,,---,0.04,VWS V13.01,2013-04-15 23:04:00,
2013-04-15 16:10:00,51.6,39.8,29.72,ENE,69,0.0,3.6,64,0.04,,---,0.04,VWS V13.01,2013-04-15 23:10:00,
2013-04-15 16:15:00,51.1,39.7,29.72,WNW,284,0.0,3.6,65,0.04,,---,0.04,VWS V13.01,2013-04-15 23:15:00,
2013-04-15 16:20:00,51.1,40.5,29.72,NNW,336,0.0,0.0,67,0.20,,---,0.20,VWS V13.01,2013-04-15 23:20:00,
2013-04-15 16:26:00,51.1,40.9,29.72,ENE,74,0.0,0.0,68,0.20,,---,0.20,VWS V13.01,2013-04-15 23:26:00,
2013-04-15 16:32:00,51.3,41.8,29.72,North,4,3.6,3.6,70,0.20,,---,0.20,VWS V13.01,2013-04-15 23:32:00,
2013-04-15 16:38:00,51.3,41.8,29.72,North,357,0.0,0.0,70,0.20,,---,0.20,VWS V13.01,2013-04-15 23:38:00,
2013-04-15 16:44:00,51.3,42.2,29.72,North,357,0.0,2.2,71,0.20,,---,0.20,VWS V13.01,2013-04-15 23:44:00,
2013-04-15 16:50:00,51.3,42.2,29.72,NE,45,0.0,2.7,71,0.20,,---,0.20,VWS V13.01,2013-04-15 23:50:00,
2013-04-15 16:56:00,50.9,41.5,29.75,North,11,0.0,0.0,70,0.20,,---,0.20,VWS V13.01,2013-04-15 23:56:00,
2013-04-15 17:02:00,50.5,41.1,29.75,NW,315,0.0,0.0,70,0.16,,---,0.20,VWS V13.01,2013-04-16 00:02:00,
2013-04-15 17:08:00,50.5,41.1,29.75,NW,319,2.7,2.7,70,0.16,,---,0.20,VWS V13.01,2013-04-16 00:08:00,
2013-04-15 17:14:00,50.4,41.3,29.75,ENE,72,0.0,0.0,71,0.16,,---,0.20,VWS V13.01,2013-04-16 00:14:00,
2013-04-15 17:20:00,50.4,41.3,29.75,NNW,331,0.0,0.0,71,0.16,,---,0.20,VWS V13.01,2013-04-16 00:20:00,
2013-04-15 17:25:00,50.4,41.3,29.72,North,2,0.0,0.0,71,0.00,,---,0.20,VWS V13.01,2013-04-16 00:25:00,
2013-04-15 17:30:00,50.4,41.3,29.72,North,3,0.0,0.0,71,0.00,,---,0.20,VWS V13.01,2013-04-16 00:30:00,
2013-04-15 17:36:00,50.4,41.3,29.72,North,0,0.0,2.7,71,0.00,,---,0.20,VWS V13.01,2013-04-16 00:36:00,
2013-04-15 17:42:00,50.4,41.3,29.72,North,349,4.5,4.5,71,0.00,,---,0.20,VWS V13.01,2013-04-16 00:42:00,
2013-04-15 17:48:00,50.4,41.3,29.72,North,353,0.0,0.0,71,0.00,,---,0.20,VWS V13.01,2013-04-16 00:48:00,
2013-04-15 17:54:00,50.4,41.3,29.72,North,8,0.0,0.0,71,0.00,,---,0.20,VWS V13.01,2013-04-16 00:54:00,
2013-04-15 18:00:00,50.5,41.1,29.72,North,0,0.0,0.0,70,0.00,,---,0.20,VWS V13.01,2013-04-16 01:00:00,
2013-04-15 18:05:00,50.5,40.8,29.72,NW,310,0.0,0.0,69,0.00,,---,0.20,VWS V13.01,2013-04-16 01:05:00,
2013-04-15 18:10:00,50.5,40.8,29.72,North,3,2.2,2.7,69,0.00,,---,0.20,VWS V13.01,2013-04-16 01:10:00,
2013-04-15 18:15:00,50.5,40.4,29.72,NNE,12,0.0,0.0,68,0.00,,---,0.20,VWS V13.01,2013-04-16 01:15:00,
2013-04-15 18:20:00,50.5,40.4,29.72,NNW,341,0.0,0.0,68,0.00,,---,0.20,VWS V13.01,2013-04-16 01:20:00,
2013-04-15 18:27:00,50.7,40.2,29.72,North,1,0.0,0.0,67,0.00,,---,0.20,VWS V13.01,2013-04-16 01:27:00,
2013-04-15 18:33:00,50.7,40.2,29.72,NNE,32,0.0,0.0,67,0.00,,---,0.20,VWS V13.01,2013-04-16 01:33:00,
2013-04-15 18:39:00,51.1,40.5,29.72,NNE,16,0.0,0.0,67,0.00,,---,0.20,VWS V13.01,2013-04-16 01:39:00,
2013-04-15 18:45:00,51.6,40.7,29.72,NNE,17,0.0,0.0,66,0.00,,---,0.20,VWS V13.01,2013-04-16 01:45:00,
2013-04-15 18:50:00,51.8,40.4,29.72,North,10,0.0,0.0,65,0.00,,---,0.20,VWS V13.01,2013-04-16 01:50:00,
2013-04-15 18:55:00,52.0,40.2,29.72,NE,36,2.2,2.2,64,0.00,,---,0.20,VWS V13.01,2013-04-16 01:55:00,
2013-04-15 19:00:00,52.2,40.0,29.72,NNW,333,0.0,0.0,63,0.00,,---,0.20,VWS V13.01,2013-04-16 02:00:00,
2013-04-15 19:05:00,52.3,39.7,29.72,North,5,0.0,0.0,62,0.00,,---,0.20,VWS V13.01,2013-04-16 02:05:00,
2013-04-15 19:11:00,52.2,39.1,29.72,NNE,25,3.1,3.1,61,0.00,,---,0.20,VWS V13.01,2013-04-16 02:11:00,
2013-04-15 19:17:00,52.0,38.5,29.72,NNW,338,0.0,4.0,60,0.00,,---,0.20,VWS V13.01,2013-04-16 02:17:00,
2013-04-15 19:23:00,51.6,37.8,29.72,NNE,20,0.0,0.0,59,0.00,,---,0.20,VWS V13.01,2013-04-16 02:23:00,
2013-04-15 19:29:00,51.3,37.0,29.72,North,357,0.0,0.0,58,0.00,,---,0.20,VWS V13.01,2013-04-16 02:29:00,
2013-04-15 19:35:00,51.1,37.3,29.72,North,4,0.0,0.0,59,0.00,,---,0.20,VWS V13.01,2013-04-16 02:35:00,
2013-04-15 19:40:00,50.7,36.9,29.72,North,1,0.0,2.7,59,0.00,,---,0.20,VWS V13.01,2013-04-16 02:40:00,
2013-04-15 19:45:00,50.7,36.9,29.72,NNE,18,0.0,2.7,59,0.00,,---,0.20,VWS V13.01,2013-04-16 02:45:00,
2013-04-15 19:51:00,50.4,36.6,29.72,North,7,0.0,0.0,59,0.00,,---,0.20,VWS V13.01,2013-04-16 02:51:00,
2013-04-15 19:57:00,50.2,36.8,29.72,North,7,0.0,0.0,60,0.00,,---,0.20,VWS V13.01,2013-04-16 02:57:00,
2013-04-15 20:03:00,50.2,37.3,29.72,North,7,0.0,0.0,61,0.00,,---,0.20,VWS V13.01,2013-04-16 03:03:00,
2013-04-15 20:09:00,50.2,37.3,29.72,North,7,0.0,0.0,61,0.00,,---,0.20,VWS V13.01,2013-04-16 03:09:00,
2013-04-15 20:15:00,50.0,37.1,29.72,North,7,0.0,0.0,61,0.00,,---,0.20,VWS V13.01,2013-04-16 03:15:00,
2013-04-15 20:20:00,50.0,37.5,29.72,ESE,118,0.0,0.0,62,0.00,,---,0.20,VWS V13.01,2013-04-16 03:20:00,
2013-04-15 20:25:00,50.2,38.1,29.72,SW,231,0.0,0.0,63,0.00,,---,0.20,VWS V13.01,2013-04-16 03:25:00,
2013-04-15 20:31:00,50.2,38.1,29.72,SW,231,0.0,0.0,63,0.00,,---,0.20,VWS V13.01,2013-04-16 03:31:00,
2013-04-15 20:37:00,50.2,38.1,29.72,SW,231,0.0,0.0,63,0.00,,---,0.20,VWS V13.01,2013-04-16 03:37:00,
2013-04-15 20:43:00,50.2,38.1,29.72,SW,231,0.0,0.0,63,0.00,,---,0.20,VWS V13.01,2013-04-16 03:43:00,
2013-04-15 20:49:00,50.2,38.1,29.72,SW,231,0.0,0.0,63,0.00,,---,0.20,VWS V13.01,2013-04-16 03:49:00,
2013-04-15 20:55:00,50.2,38.1,29.72,SW,231,0.0,0.0,63,0.00,,---,0.20,VWS V13.01,2013-04-16 03:55:00,
2013-04-15 21:00:00,50.2,38.1,29.72,SW,231,0.0,0.0,63,0.00,,---,0.20,VWS V13.01,2013-04-16 04:00:00,
2013-04-15 21:03:00,50.2,38.1,29.72,SW,231,0.0,0.0,63,0.00,,---,0.20,VWS V13.01,2013-04-16 04:03:00,
2013-04-15 21:05:00,50.2,38.1,29.72,SW,231,0.0,0.0,63,0.00,,---,0.20,VWS V13.01,2013-04-16 04:05:00,
2013-04-15 21:09:00,50.0,37.9,29.72,SW,235,0.0,0.0,63,0.00,,---,0.20,VWS V13.01,2013-04-16 04:09:00,
2013-04-15 21:10:00,50.0,37.9,29.72,SW,235,0.0,0.0,63,0.00,,---,0.20,VWS V13.01,2013-04-16 04:10:00,
2013-04-15 21:15:00,50.0,37.9,29.72,North,3,0.0,0.0,63,0.00,,---,0.20,VWS V13.01,2013-04-16 04:15:00,
2013-04-15 21:20:00,49.8,38.2,29.72,North,10,0.0,0.0,64,0.00,,---,0.20,VWS V13.01,2013-04-16 04:20:00,
2013-04-15 21:25:00,49.8,38.2,29.72,NNW,346,0.0,0.0,64,0.00,,---,0.20,VWS V13.01,2013-04-16 04:25:00,
2013-04-15 21:31:00,49.5,37.8,29.72,NNW,346,0.0,0.0,64,0.00,,---,0.20,VWS V13.01,2013-04-16 04:31:00,
2013-04-15 21:37:00,49.3,37.6,29.72,NNW,346,0.0,0.0,64,0.00,,---,0.20,VWS V13.01,2013-04-16 04:37:00,
2013-04-15 21:43:00,48.7,37.5,29.78,NNW,346,0.0,0.0,65,0.00,,---,0.20,VWS V13.01,2013-04-16 04:43:00,
2013-04-15 21:49:00,48.4,37.2,29.78,NNW,346,0.0,0.0,65,0.00,,---,0.20,VWS V13.01,2013-04-16 04:49:00,
2013-04-15 21:55:00,48.2,37.0,29.78,NNW,346,0.0,0.0,65,0.00,,---,0.20,VWS V13.01,2013-04-16 04:55:00,
2013-04-15 22:01:00,48.0,37.2,29.78,NNW,346,0.0,0.0,66,0.00,,---,0.20,VWS V13.01,2013-04-16 05:01:00,
2013-04-15 22:07:00,47.7,37.3,29.78,NNW,346,0.0,0.0,67,0.00,,---,0.20,VWS V13.01,2013-04-16 05:07:00,
2013-04-15 22:14:00,47.7,37.6,29.78,NNW,346,0.0,0.0,68,0.00,,---,0.20,VWS V13.01,2013-04-16 05:14:00,
2013-04-15 22:20:00,47.5,37.5,29.78,NNW,346,0.0,0.0,68,0.00,,---,0.20,VWS V13.01,2013-04-16 05:20:00,
2013-04-15 22:25:00,47.3,37.7,29.78,NNW,346,0.0,0.0,69,0.00,,---,0.20,VWS V13.01,2013-04-16 05:25:00,
2013-04-15 22:32:00,47.1,37.5,29.78,NNW,346,0.0,0.0,69,0.00,,---,0.20,VWS V13.01,2013-04-16 05:32:00,
2013-04-15 22:38:00,46.8,37.1,29.78,NNW,346,0.0,0.0,69,0.00,,---,0.20,VWS V13.01,2013-04-16 05:38:00,
2013-04-15 22:44:00,46.6,37.3,29.78,NNW,346,0.0,0.0,70,0.00,,---,0.20,VWS V13.01,2013-04-16 05:44:00,
2013-04-15 22:50:00,46.2,37.3,29.78,NNW,346,0.0,0.0,71,0.00,,---,0.20,VWS V13.01,2013-04-16 05:50:00,
2013-04-15 22:56:00,46.2,37.3,29.78,NNW,346,0.0,0.0,71,0.00,,---,0.20,VWS V13.01,2013-04-16 05:56:00,
2013-04-15 23:02:00,45.9,37.0,29.78,NNW,346,0.0,0.0,71,0.00,,---,0.20,VWS V13.01,2013-04-16 06:02:00,
2013-04-15 23:08:00,45.7,37.2,29.78,NNW,346,0.0,0.0,72,0.00,,---,0.20,VWS V13.01,2013-04-16 06:08:00,
2013-04-15 23:14:00,45.7,37.2,29.78,NNW,346,0.0,0.0,72,0.00,,---,0.20,VWS V13.01,2013-04-16 06:14:00,
2013-04-15 23:20:00,45.3,36.8,29.78,NNW,346,0.0,0.0,72,0.00,,---,0.20,VWS V13.01,2013-04-16 06:20:00,
2013-04-15 23:25:00,45.1,36.7,29.78,NNW,346,0.0,0.0,72,0.00,,---,0.20,VWS V13.01,2013-04-16 06:25:00,
2013-04-15 23:30:00,45.1,36.7,29.78,NNW,346,0.0,0.0,72,0.00,,---,0.20,VWS V13.01,2013-04-16 06:30:00,
2013-04-15 23:36:00,44.8,36.7,29.78,NNW,346,0.0,0.0,73,0.00,,---,0.20,VWS V13.01,2013-04-16 06:36:00,
2013-04-15 23:42:00,44.6,36.5,29.78,NNW,346,0.0,0.0,73,0.00,,---,0.20,VWS V13.01,2013-04-16 06:42:00,
2013-04-15 23:48:00,44.6,36.5,29.78,NNW,346,0.0,0.0,73,0.00,,---,0.20,VWS V13.01,2013-04-16 06:48:00,
2013-04-15 23:54:00,44.6,36.5,29.78,NNW,346,0.0,0.0,73,0.00,,---,0.20,VWS V13.01,2013-04-16 06:54:00,